Location: Berbisdorf
(50.7638°N, 12.9442°E)
Time: 12:41:03
(UTC+00:00)

STARLINK-1317 - Pass Details

Date: 02 October 2020
Orbit: 549 x 550 km, 53.0° (Epoch: 27 October)

Event Time Altitude Azimuth Distance (km) Brightness Sun altitude
Rises 04:18:35 0° 201° (SSW) 2,704 6.9 -9.1°
Reaches altitude 10° 04:21:14 10° 184° (S) 1,815 6.2 -8.6°
Maximum altitude 04:24:16 20° 137° (SE) 1,292 6.0 -8.2°
Drops below altitude 10° 04:27:20 10° 89° (E) 1,824 8.1 -7.7°
Sets 04:30:00 0° 72° (ENE) 2,722 9.0 -7.3°
